AKST,Max TemperatureF,Mean TemperatureF,Min TemperatureF,Max Dew PointF,MeanDew PointF,Min DewpointF,Max Humidity, Mean Humidity, Min Humidity, Max Sea Level PressureIn, Mean Sea Level PressureIn, Min Sea Level PressureIn, Max VisibilityMiles, Mean VisibilityMiles, Min VisibilityMiles, Max Wind SpeedMPH, Mean Wind SpeedMPH, Max Gust SpeedMPH,PrecipitationIn, CloudCover, Events, WindDirDegrees
2012-12-1,24,22,21,16,15,12,80,73,59,29.37,29.32,29.24,10,6,1,12,4,18,0.00,8,,23
2012-12-2,24,22,21,18,17,16,80,79,74,29.28,29.20,29.18,10,4,1,15,10,21,0.00,8,,37
2012-12-3,28,26,24,23,21,18,86,78,74,29.45,29.36,29.25,10,4,1,22,12,33,0.00,8,,59
2012-12-4,28,27,26,23,21,19,80,76,69,29.49,29.28,29.15,10,7,1,17,11,26,0.00,8,,57
2012-12-5,33,30,26,28,27,21,87,83,74,29.78,29.64,29.49,10,7,1,13,9,23,0.00,7,,93
2012-12-6,33,32,30,28,27,27,93,82,75,29.80,29.73,29.60,10,8,1,12,9,18,0.00,6,,99
2012-12-7,32,29,26,28,26,23,93,84,80,30.14,29.91,29.64,10,10,3,10,7,,0.00,8,,88
2012-12-8,30,26,23,28,22,19,93,81,69,30.21,30.11,29.82,10,8,1,15,6,24,0.00,6,,94
2012-12-9,39,34,30,36,32,28,93,86,81,30.04,29.92,29.81,10,9,1,14,10,21,0.00,7,,115
2012-12-10,42,40,37,37,35,32,93,87,81,30.05,29.68,29.31,10,9,4,15,9,22,0.00,7,,109
2012-12-11,41,34,26,36,30,21,93,83,65,29.89,29.62,29.33,10,10,3,12,5,17,0.00,4,,35
2012-12-12,35,30,26,32,28,21,93,83,65,29.91,29.74,29.44,10,8,2,17,8,25,0.21,7,,107
2012-12-13,37,34,32,36,32,28,93,86,75,29.68,29.55,29.43,10,10,9,13,7,21,0.07,5,,121
2012-12-14,37,35,33,34,31,30,93,83,81,29.68,29.30,28.94,10,9,4,25,12,34,0.44,8,,116
2012-12-15,37,34,32,34,30,28,93,83,75,29.25,29.10,28.93,10,10,1,17,11,23,0.22,7,,120
2012-12-16,33,30,28,30,28,25,93,84,81,29.25,29.24,29.23,10,9,1,13,8,18,0.02,5,,108
2012-12-17,30,27,24,27,20,16,93,75,64,29.71,29.45,29.24,10,10,10,16,9,26,0.00,2,,55
2012-12-18,30,22,15,21,18,12,86,76,64,29.73,29.55,29.27,10,10,10,14,7,24,0.00,5,,73
2012-12-19,30,29,28,25,22,18,86,75,64,29.52,29.29,29.17,10,6,0,18,13,28,0.00,8,,47
2012-12-20,28,24,21,18,14,10,69,62,54,29.85,29.70,29.52,10,10,10,14,8,24,0.00,4,,30
2012-12-21,23,20,17,10,9,7,63,59,54,29.94,29.90,29.86,10,10,10,15,8,20,0.00,2,,25
2012-12-22,21,20,19,10,9,7,68,61,54,29.86,29.78,29.73,10,10,3,14,9,21,0.00,5,,35
2012-12-23,24,22,21,18,12,9,74,64,58,29.97,29.84,29.76,10,10,3,14,8,23,0.00,5,,50
2012-12-24,26,24,21,19,17,16,86,73,69,30.08,30.02,29.92,10,10,3,14,8,23,0.00,4,,66
2012-12-25,28,26,24,18,15,12,69,63,55,29.93,29.83,29.78,10,10,4,16,11,30,0.00,5,,62
2012-12-26,26,20,15,19,16,10,86,74,59,29.94,29.90,29.81,10,10,10,9,7,16,0.00,1,,80
2012-12-27,35,29,23,32,26,18,87,79,60,29.92,29.78,29.73,10,8,1,15,6,24,0.06,8,,106
2012-12-28,37,36,35,34,32,30,93,87,81,30.11,29.91,29.78,10,10,8,13,9,18,0.08,8,,108
2012-12-29,39,37,35,34,33,32,93,87,81,30.17,30.13,30.02,10,10,6,12,7,21,0.00,8,,107
2012-12-30,39,38,37,36,35,34,87,85,81,30.02,29.90,29.79,10,10,8,16,11,24,0.84,8,,116
2012-12-31,41,36,32,37,34,28,93,87,75,30.35,30.16,29.80,10,10,2,12,6,18,0.29,7,,101